This demonstration page uses our WeatherBlox Daily Observations layout. Learn more.

Left ArrowRight Arrow

Hourly Observations for September 19, 2021

Temp ( °F °C ) Dew Point ( °F °C ) Humidity (%) Winds ( mph kmh ) Pressure ( in mb ) Visibility ( mi km ) Precip ( " mm )
12:53 am 00:53 Clear 66 18.9 65 18.3 96 96 N N/A 30.13 1020 9 14 N/A
1:53 am 01:53 Clear 66 18.9 65 18.3 96 96 N N/A 30.12 1020 9 14 N/A
2:53 am 02:53 Clear with Mist and Fog 65 18.3 65 18.3 100 100 N N/A 30.12 1020 6 10 N/A
3:53 am 03:53 Clear 64 17.8 64 17.8 100 100 N N/A 30.12 1020 9 14 N/A
4:53 am 04:53 Clear with Mist and Fog 64 17.8 63 17.2 96 96 N N/A 30.12 1020 5 8 N/A
5:53 am 05:53 Clear with Mist and Fog 62 16.7 62 16.7 100 100 N N/A 30.13 1020 6 10 N/A
6:53 am 06:53 Clear with Mist and Fog 63 17.2 62 16.7 97 97 N N/A 30.14 1021 5 8 N/A
7:53 am 07:53 Sunny with Mist and Fog 63 17.2 63 17.2 100 100 N N/A 30.15 1021 5 8 N/A
8:53 am 08:53 Sunny 70 21.1 67 19.4 90 90 N N/A 30.16 1021 10 16 N/A
9:53 am 09:53 Sunny 76 24.4 68 20 77 77 N N/A 30.16 1021 10 16 N/A
10:53 am 10:53 Sunny 79 26.1 70 21.1 74 74 N N/A 30.16 1021 10 16 N/A
11:53 am 11:53 Sunny 83 28.3 68 20 61 61 N N/A 30.16 1021 10 16 N/A
12:53 pm 12:53 Sunny 84 28.9 67 19.4 57 57 VRB 3 6 30.14 1021 10 16 N/A
1:53 pm 13:53 Sunny 89 31.7 62 16.7 41 41 E 12 19 30.11 1020 10 16 N/A
2:53 pm 14:53 Mostly Sunny 87 30.6 64 17.8 46 46 VRB 6 9 30.08 1019 10 16 N/A
3:53 pm 15:53 Sunny 89 31.7 61 16.1 39 39 E 8 13 30.06 1018 10 16 N/A
4:53 pm 16:53 Sunny 85 29.4 64 17.8 50 50 E 7 11 30.06 1018 10 16 N/A
5:53 pm 17:53 Sunny 82 27.8 64 17.8 55 55 E 5 7 30.05 1018 10 16 N/A
6:53 pm 18:53 Sunny 75 23.9 67 19.4 76 76 N N/A 30.06 1018 10 16 N/A
7:53 pm 19:53 Clear 72 22.2 66 18.9 82 82 N N/A 30.05 1018 10 16 N/A
8:53 pm 20:53 Clear 71 21.7 66 18.9 84 84 E 3 6 30.06 1018 10 16 N/A
9:53 pm 21:53 Clear 71 21.7 67 19.4 87 87 N N/A 30.07 1018 10 16 N/A
10:53 pm 22:53 Clear 71 21.7 67 19.4 87 87 N N/A 30.08 1019 10 16 N/A
11:53 pm 23:53 Mostly Clear 70 21.1 68 20 93 93 N N/A 30.08 1019 10 16 N/A

Powered by AerisWeather